Rochelle, IL

11:43 AM CDT on September 18, 2019 (GMT -0500)
Rochelle

Weather History for KRPJ - August, 2019

Change the Weather History Date:

Thursday, August 22, 2019

  Actual Average (WUND) Record (WUND)
Temperature  
Mean Temperature 67 °F -  
Max Temperature 77 °F - - (-1)
Min Temperature 57 °F - - (-1)
Cooling Degree Days 2    
Growing Degree Days 17 (Base 50)    
Moisture  
Dew Point 60 °F    
Average Humidity 79    
Maximum Humidity 96    
Minimum Humidity 56    
Precipitation  
Precipitation 0.00 in - - ()
Sea Level Pressure  
Sea Level Pressure 30.04 in    
Wind  
Wind Speed 5 mph ()    
Max Wind Speed 14 mph    
Max Gust Speed 18 mph    
Visibility 10.0 miles    
Events      
Averages and records for this station are not official NWS values.
T = Trace of Precipitation, MM = Missing Value Source: Averaged Metar Reports

Daily Weather History Graph

Daily Weather History Graph

Search for Another Location

Airport or City:

Astronomy

Aug. 22, 2019 Rise Set
Actual Time 6:11 AM CDT 7:46 PM CDT
Civil Twilight 5:42 AM CDT 8:15 PM CDT
Nautical Twilight 5:06 AM CDT 8:51 PM CDT
Astronomical Twilight 4:28 AM CDT 9:28 PM CDT
Moon 11:29 PM CDT (8/22) 12:53 PM CDT (8/22)
Length of Visible Light 14h 33m
Length of Day
13h 34m
Waning Gibbous, 59% of the Moon is Illuminated
Aug 22
Waning Gibbous
Aug 23
Last Quarter
Aug 30
New
Sep 5
First Quarter
Sep 13
Full

Hourly Weather History & Observations

Time (CDT) Temp. Dew Point Humidity Pressure Visibility Wind Dir Wind Speed Gust Speed Precip Events Conditions
12:15 AM 67.1 °F 65.7 °F 95% 30.02 in 10.0 mi NNW 3.5 mph - N/A   Scattered Clouds
12:35 AM 67.1 °F 65.7 °F 95% 30.02 in 10.0 mi Calm Calm - N/A   Scattered Clouds
12:55 AM 67.1 °F 65.3 °F 94% 30.02 in 10.0 mi NNW 3.5 mph - N/A   Mostly Cloudy
1:15 AM 66.6 °F 65.3 °F 96% 30.02 in 10.0 mi NNW 3.5 mph - N/A   Scattered Clouds
1:35 AM 66.6 °F 64.0 °F 92% 30.01 in 10.0 mi NNW 5.8 mph - N/A   Clear
1:55 AM 66.4 °F 63.9 °F 92% 30.01 in 10.0 mi NNW 8.1 mph - N/A   Clear
2:15 AM 65.5 °F 63.0 °F 92% 30.00 in 10.0 mi North 5.8 mph - N/A   Clear
2:35 AM 65.3 °F 62.2 °F 90% 30.00 in 10.0 mi North 6.9 mph - N/A   Clear
2:55 AM 64.4 °F 62.1 °F 92% 29.99 in 10.0 mi North 5.8 mph - N/A   Clear
3:15 AM 63.5 °F 61.7 °F 94% 30.00 in 10.0 mi NNW 4.6 mph - N/A   Clear
3:35 AM 63.0 °F 61.3 °F 94% 30.00 in 10.0 mi Calm Calm - N/A   Clear
3:55 AM 62.8 °F 61.7 °F 96% 30.00 in 10.0 mi Calm Calm - N/A   Clear
4:15 AM 62.4 °F 61.2 °F 96% 30.00 in 10.0 mi Calm Calm - N/A   Clear
4:35 AM 61.7 °F 60.4 °F 96% 30.00 in 10.0 mi North 4.6 mph - N/A   Clear
4:55 AM 61.2 °F 60.1 °F 96% 30.00 in 10.0 mi North 5.8 mph - N/A   Clear
5:15 AM 60.4 °F 59.4 °F 96% 30.00 in 10.0 mi North 5.8 mph - N/A   Clear
5:35 AM 59.9 °F 58.8 °F 96% 30.01 in 10.0 mi North 4.6 mph - N/A   Clear
5:55 AM 59.5 °F 58.1 °F 95% 30.01 in 10.0 mi Calm Calm - N/A   Clear
6:15 AM 59.2 °F 57.6 °F 94% 30.01 in 10.0 mi North 3.5 mph - N/A   Clear
6:35 AM 59.2 °F 57.4 °F 94% 30.01 in 10.0 mi NNE 4.6 mph - N/A   Clear
6:50 AM 59.5 °F 57.6 °F 93% 30.02 in 10.0 mi North 4.6 mph - N/A   Clear
7:15 AM 61.0 °F 57.6 °F 88% 30.02 in 10.0 mi NNE 5.8 mph - N/A   Clear
7:35 AM 61.9 °F 57.9 °F 87% 30.03 in 10.0 mi NNE 5.8 mph - N/A   Clear
7:55 AM 62.6 °F 57.9 °F 85% 30.03 in 10.0 mi NE 4.6 mph - N/A   Clear
8:15 AM 63.5 °F 57.9 °F 82% 30.03 in 10.0 mi North 5.8 mph - N/A   Clear
8:35 AM 64.4 °F 58.5 °F 81% 30.03 in 10.0 mi NE 4.6 mph - N/A   Clear
8:55 AM 65.8 °F 60.3 °F 82% 30.04 in 10.0 mi NE 5.8 mph - N/A   Clear
9:15 AM 67.1 °F 61.3 °F 82% 30.04 in 10.0 mi NE 6.9 mph - N/A   Clear
9:35 AM 68.2 °F 62.4 °F 82% 30.04 in 10.0 mi NE 6.9 mph - N/A   Clear
9:55 AM 69.4 °F 63.3 °F 81% 30.04 in 10.0 mi NE 5.8 mph - N/A   Clear
10:15 AM 70.7 °F 64.0 °F 79% 30.04 in 10.0 mi NNE 5.8 mph - N/A   Clear
10:35 AM 71.4 °F 64.2 °F 78% 30.04 in 10.0 mi NNE 8.1 mph - N/A   Clear
10:55 AM 72.1 °F 63.9 °F 75% 30.04 in 10.0 mi NNE 10.4 mph - N/A   Clear
11:35 AM 73.8 °F 62.4 °F 68% 30.04 in 10.0 mi NNE 8.1 mph - N/A   Scattered Clouds
11:55 AM 74.7 °F 61.5 °F 63% 30.04 in 10.0 mi North 5.8 mph - N/A   Mostly Cloudy
12:15 PM 74.3 °F 60.3 °F 61% 30.04 in 10.0 mi North 5.8 mph - N/A   Scattered Clouds
12:35 PM 73.4 °F 58.6 °F 60% 30.04 in 10.0 mi North 6.9 mph - N/A   Scattered Clouds
12:55 PM 73.9 °F 60.6 °F 63% 30.04 in 10.0 mi North 3.5 mph - N/A   Scattered Clouds
1:15 PM 75.6 °F 59.0 °F 56% 30.04 in 10.0 mi NE 9.2 mph - N/A   Scattered Clouds
1:35 PM 73.9 °F 58.6 °F 59% 30.04 in 10.0 mi NNE 6.9 mph - N/A   Scattered Clouds
1:55 PM 76.1 °F 59.5 °F 56% 30.04 in 10.0 mi NE 5.8 mph - N/A   Scattered Clouds
2:15 PM 76.6 °F 60.4 °F 57% 30.03 in 10.0 mi NNE 6.9 mph - N/A   Scattered Clouds
2:35 PM 76.5 °F 61.5 °F 60% 30.03 in 10.0 mi NE 10.4 mph 16.1 mph N/A   Scattered Clouds
2:55 PM 77.0 °F 64.4 °F 65% 30.03 in 10.0 mi ENE 12.7 mph 16.1 mph N/A   Scattered Clouds
3:15 PM 74.3 °F 62.4 °F 66% 30.02 in 10.0 mi ENE 13.8 mph - N/A   Scattered Clouds
3:35 PM 76.1 °F 62.2 °F 62% 30.02 in 10.0 mi NE 10.4 mph - N/A   Clear
3:55 PM 75.9 °F 62.4 °F 63% 30.02 in 10.0 mi ENE 13.8 mph 18.4 mph N/A   Clear
4:15 PM 75.2 °F 61.2 °F 62% 30.02 in 10.0 mi ENE 13.8 mph 17.3 mph N/A   Clear
4:35 PM 73.0 °F 60.4 °F 65% 30.03 in 10.0 mi East 12.7 mph 17.3 mph N/A   Scattered Clouds
4:55 PM 72.7 °F 59.7 °F 64% 30.03 in 10.0 mi ENE 12.7 mph - N/A   Scattered Clouds
5:15 PM 74.3 °F 59.7 °F 60% 30.03 in 10.0 mi ENE 10.4 mph - N/A   Clear
5:35 PM 74.1 °F 59.7 °F 61% 30.03 in 10.0 mi ENE 9.2 mph - N/A   Clear
5:55 PM 73.6 °F 58.8 °F 60% 30.03 in 10.0 mi ENE 9.2 mph - N/A   Clear
6:15 PM 73.2 °F 59.0 °F 61% 30.03 in 10.0 mi ENE 8.1 mph - N/A   Clear
6:55 PM 71.4 °F 58.6 °F 64% 30.04 in 10.0 mi ENE 8.1 mph - N/A   Clear
7:15 PM 70.5 °F 58.1 °F 65% 30.04 in 10.0 mi ENE 8.1 mph - N/A   Clear
7:35 PM 68.4 °F 58.1 °F 70% 30.05 in 10.0 mi ENE 8.1 mph - N/A   Clear
7:55 PM 66.9 °F 56.3 °F 69% 30.06 in 10.0 mi ENE 8.1 mph - N/A   Clear
8:35 PM 64.9 °F 55.4 °F 71% 30.06 in 10.0 mi ENE 10.4 mph - N/A   Clear
8:55 PM 63.7 °F 55.9 °F 76% 30.07 in 10.0 mi ENE 9.2 mph - N/A   Clear
9:15 PM 63.0 °F 55.8 °F 77% 30.08 in 10.0 mi ENE 8.1 mph - N/A   Clear
9:35 PM 62.1 °F 55.9 °F 80% 30.09 in 10.0 mi ENE 6.9 mph - N/A   Scattered Clouds
9:55 PM 60.4 °F 56.3 °F 86% 30.09 in 10.0 mi ENE 3.5 mph - N/A   Clear
10:15 PM 61.0 °F 55.9 °F 83% 30.10 in 10.0 mi ENE 6.9 mph - N/A   Clear
10:35 PM 59.9 °F 55.9 °F 87% 30.10 in 10.0 mi ENE 4.6 mph - N/A   Clear
10:55 PM 58.6 °F 55.6 °F 90% 30.10 in 10.0 mi Calm Calm - N/A   Clear
11:15 PM 57.4 °F 55.8 °F 94% 30.10 in 10.0 mi Calm Calm - N/A   Clear
11:35 PM 57.4 °F 55.8 °F 94% 30.10 in 10.0 mi NE 3.5 mph - N/A   Clear
11:55 PM 57.7 °F 55.8 °F 93% 30.10 in 10.0 mi ENE 3.5 mph - N/A   Clear